SCP
0 0 0 0 0 0 0 0 0 0 0 0 0 0 0 0 0 0 0 0 0 0 0 0 0 0 0 0 0 0 0 0 0 0 0 0 0 0 0 0 0 0 0
0 0 0 0 0 0 0 0 0 0 0 0 0 0 0 0 0 0 0 0 0 0 0 0 0 0 0 0 0 0 0 0 0 0 0 0 0 0 0 0 0 0 0
0 0 0 0 0 0 0 0 0 0 0 0 0 0 0 0 0 0 0 0 0 0 0 0 0 0 0 0 0 0 0 0 0 0 0 0 0 0 0 0 0 0 0
0 0 0 0 0 0 0 0 0 0 0 0 0 0 0 0 0 0 0 0 0 0 0 0 0 0 0 0 0 0 0 0 0 0 0 0 0 0 0 0 0 0 0
0 0 0 0 0 0 0 0 0 0 0 0 0 0 0 0 0 0 0 0 0 0 0 0 0 0 0 0 0 0 0 0 0 0 0 0 0 0 0 0 0 1 0
0 0 0 0 0 0 0 0 0 0 0 0 0 0 0 0 0 0 0 0 0 0 0 0 0 0 0 0 0 0 0 0 0 0 0 0 0 0 0 0 0 1 0
0 0 0 0 0 0 0 0 0 0 0 0 0 0 0 0 0 0 0 0 0 0 0 0 0 0 0 0 0 0 0 0 0 0 0 0 0 0 0 0 0 0 0
0 0 0 0 0 0 0 0 0 0 0 0 0 0 0 0 0 0 0 0 0 0 0 0 0 0 0 0 0 0 0 0 0 0 0 0 0 0 0 0 0 0 0
0 0 0 0 0 0 0 0 0 0 0 0 0 0 0 0 0 0 0 0 0 0 0 0 0 0 0 0 0 0 0 0 0 0 0 0 0 0 0 0 0 0 0
0 0 0 0 0 0 0 0 0 0 0 0 0 0 0 0 0 0 0 0 0 0 0 0 0 0 0 0 0 0 0 0 0 0 0 0 0 0 0 0 0 0 0
0 0 0 0 0 0 0 0 0 0 0 0 0 0 0 0 0 0 0 0 0 0 0 0 0 0 0 0 0 0 0 0 0 0 0 0 0 0 0 0 0 0 0
0 0 0 0 0 0 0 0 0 0 0 0 0 0 0 0 0 0 0 0 0 0 0 0 0 0 0 0 0 0 0 0 0 0 0 0 0 0 0 0 0 0 0
0 0 0 0 0 0 0 0 0 0 0 0 0 0 0 0 0 0 0 0 0 0 0 0 0 0 0 0 0 0 0 0 0 0 0 0 0 0 0 0 0 0 0
0 0 0 0 0 0 0 0 0 0 0 0 0 0 0 0 0 0 0 0 0 0 0 0 0 0 0 0 0 0 0 0 0 0 0 0 0 0 0 0 0 0 0
0 0 0 0 0 0 0 0 0 0 0 0 0 0 0 0 0 0 0 0 0 0 0 0 0 0 0 0 0 0 0 0 0 0 0 0 0 0 0 0 0 0 0
0 0 0 0 0 0 0 0 0 0 0 0 0 0 0 0 0 0 0 0 0 0 0 0 0 0 0 0 0 0 0 0 0 0 0 0 0 0 0 0 0 0 0
0 0 0 0 0 0 0 0 0 0 0 0 0 0 0 0 0 0 0 0 0 0 0 0 0 0 0 0 0 0 0 0 0 0 0 0 0 0 0 0 0 0 0
0 0 0 0 0 0 0 0 0 0 0 0 0 0 0 0 0 0 0 0 0 0 0 0 0 0 0 0 0 0 0 0 0 0 0 0 0 0 0 0 0 0 0
0 0 0 0 0 0 0 0 0 0 0 0 0 0 0 0 0 0 0 0 0 0 0 0 0 0 0 0 0 0 0 0 0 0 0 0 0 0 0 0 0 0 0
0 0 0 0 0 0 0 0 0 0 0 0 0 0 0 0 0 0 0 0 0 0 0 0 0 0 0 0 0 0 0 0 0 0 0 0 0 0 0 0 0 0 0
0 0 0 0 0 0 0 0 0 0 0 0 0 0 0 0 0 0 0 0 0 0 0 0 0 0 0 0 0 0 0 0 0 0 0 0 0 0 0 0 0 0 0
0 0 0 0 0 0 0 0 0 0 0 0 0 0 0 0 0 0 0 0 0 0 0 0 0 0 0 0 0 0 0 0 0 0 0 0 0 0 0 0 0 0 0
0 0 0 0 0 0 0 0 0 0 0 0 0 0 0 0 0 0 0 0 0 0 0 0 0 0 0 0 0 0 0 0 0 0 0 0 0 0 0 0 0 0 0
0 0 0 0 0 0 0 0 0 0 0 0 0 0 0 0 0 0 0 0 0 0 0 0 0 0 0 0 0 0 0 0 0 0 0 0 0 0 0 0 0 0 0
0 0 0 0 0 0 0 0 0 0 0 0 0 0 0 0 0 0 0 0 0 0 0 0 0 0 0 0 0 0 0 0 0 0 0 0 0 0 0 0 0 0 0
0 0 0 0 0 0 0 0 0 0 0 0 0 0 0 0 0 0 0 0 0 0 0 0 0 0 0 0 0 0 0 0 0 0 0 0 0 0 0 0 0 0 0
Wind_Speed
6 6 5 5 4 4 3 3 2 2 3 3 3 3 4 4 4 4 4 4 4 5 4 5 5 6 4 4 4 4 3 3 3 3 3 4 5 5 4 4 4 4 1
7 6 6 5 5 4 4 3 2 2 2 3 3 3 4 4 4 4 4 4 4 5 5 5 5 4 5 5 4 4 4 4 4 5 4 4 6 6 5 5 4 3 4
7 7 6 5 5 4 4 3 2 2 2 2 2 2 3 3 3 3 3 3 4 4 5 5 5 5 5 4 4 4 4 4 4 4 5 4 5 5 6 5 5 4 5
8 7 6 6 5 4 4 3 2 2 2 2 2 2 2 2 2 2 3 3 3 3 4 4 5 6 6 6 5 5 5 5 4 4 4 4 5 5 5 5 5 4 5
8 7 6 5 5 4 4 3 3 3 3 3 2 2 3 2 4 4 2 2 3 3 3 4 5 6 7 7 6 6 6 5 5 5 5 5 5 5 5 6 6 6 6
9 8 7 6 6 5 5 4 4 3 3 3 2 3 3 3 5 6 5 2 3 3 3 4 3 3 4 3 4 6 7 7 7 6 6 6 7 7 6 6 7 7 6
9 8 8 7 6 5 5 5 4 3 3 3 3 3 3 4 4 4 5 4 3 4 4 4 4 4 5 5 3 4 3 4 6 8 8 8 8 8 8 9 8 8 8
10 9 8 7 7 6 5 5 4 3 3 3 3 2 2 3 4 3 4 3 2 2 3 4 4 5 7 8 7 7 6 5 5 6 7 8 8 9 9 10 10 10 9
10 10 9 8 7 6 6 5 4 3 3 3 3 2 2 3 3 1 5 2 1 2 3 4 5 5 7 9 8 7 7 6 3 5 8 9 10 11 10 8 8 8 8
11 10 9 8 8 7 6 5 4 4 3 3 3 2 1 1 3 1 6 3 2 2 2 2 2 5 7 9 9 8 8 8 9 8 8 8 9 7 8 9 7 8 9
10 10 9 8 7 7 6 5 4 4 4 3 3 2 2 1 2 0 4 4 4 4 3 3 2 2 6 9 10 8 8 11 10 9 8 8 7 7 6 7 7 7 9
11 10 9 8 7 6 6 5 5 4 4 4 3 3 2 2 1 1 3 5 7 5 5 5 3 4 8 9 9 8 10 11 8 7 7 7 7 7 7 8 9 9 9
12 11 9 9 7 6 7 6 5 5 4 3 3 3 2 2 2 3 4 5 6 6 5 5 7 7 9 8 7 9 9 7 7 7 8 8 7 8 8 8 9 9 11
12 11 10 9 8 7 5 5 5 5 4 4 4 3 3 3 3 3 3 4 5 6 6 5 7 9 8 8 8 7 6 6 7 8 8 8 8 7 7 7 8 8 9
12 10 10 8 8 7 6 5 5 5 4 4 4 4 4 4 2 3 5 5 5 5 7 7 7 6 6 6 6 7 7 7 7 7 8 8 8 8 8 7 7 9 9
11 10 8 7 6 6 6 6 5 5 4 6 6 6 5 5 4 5 7 8 8 7 7 7 7 7 7 8 8 7 7 7 8 8 8 9 9 8 9 8 8 9 9
11 9 7 7 6 6 6 6 5 7 9 10 10 10 10 8 7 8 9 9 9 8 7 8 8 8 8 8 8 8 8 8 8 8 9 9 9 9 9 9 9 9 10
10 9 7 6 6 6 6 6 5 5 5 6 9 12 12 11 11 10 9 7 7 7 7 8 8 8 8 8 8 9 9 8 8 8 9 9 9 9 10 10 9 11 11
9 7 7 6 6 6 6 6 6 6 6 6 5 6 9 10 11 11 9 8 8 8 8 8 8 8 8 8 8 9 9 9 9 9 9 10 9 10 10 10 10 12 12
7 7 7 6 6 6 6 6 6 6 6 6 6 6 5 5 7 7 7 7 8 8 8 8 8 8 8 8 8 8 9 9 10 9 9 9 10 10 11 12 11 11 11
7 8 9 7 6 6 6 6 6 6 6 7 7 6 5 7 7 8 7 7 8 8 8 8 8 8 8 8 8 9 11 9 9 9 10 10 10 10 10 10 11 11 11
6 6 7 7 6 6 6 6 6 7 7 8 7 6 7 8 8 7 7 8 8 8 8 8 8 7 7 8 9 9 10 10 10 10 10 10 10 11 11 11 11 11 11
6 6 6 6 6 6 6 6 6 6 7 7 7 7 6 7 7 7 8 8 8 8 8 7 8 8 8 8 8 9 10 10 10 10 11 11 11 11 11 12 14 14 13
6 6 6 5 5 5 6 6 6 6 7 7 7 7 7 7 7 8 8 8 7 8 8 8 9 11 13 11 9 9 9 9 11 10 14 13 13 12 12 12 13 15 14
5 5 5 5 5 5 5 6 6 6 6 7 7 7 7 7 8 8 8 8 9 9 10 10 8 10 13 14 13 11 10 10 11 12 12 12 14 15 14 15 13 14 15
5 5 5 5 5 5 5 5 6 6 6 6 7 7 7 7 7 8 8 8 8 8 9 9 11 12 14 13 14 13 11 12 13 14 13 12 14 14 14 13 16 14 15
Wind_Direction
161 158 156 148 147 142 122 106 108 110 111 95 74 67 65 59 58 58 43 42 33 44 44 41 36 25 18 15 7 0 353 341 323 330 342 340 333 330 333 323 312 296 275
160 159 155 146 154 149 132 124 125 110 101 99 88 77 68 58 50 49 43 38 33 31 32 31 31 28 19 13 2 359 358 344 327 329 328 337 333 333 327 315 306 300 297
160 160 155 153 155 148 140 128 126 118 122 119 112 84 72 64 59 52 47 38 37 31 24 18 17 15 8 11 356 357 350 346 333 319 326 331 320 328 322 310 305 301 292
161 163 158 156 153 151 135 135 126 122 126 113 106 88 73 63 46 37 39 28 31 33 28 20 13 8 1 354 349 350 342 332 329 321 319 321 320 324 313 316 311 308 295
164 163 157 152 146 143 135 134 128 126 123 112 106 95 76 55 30 8 22 16 15 20 19 21 27 16 9 355 346 341 334 323 320 319 318 317 318 324 326 321 309 306 296
166 163 155 158 149 149 141 139 133 126 117 113 106 88 76 61 40 10 342 1 6 7 7 4 19 8 8 348 348 340 334 325 324 317 313 314 319 322 321 308 307 303 299
167 163 160 160 153 150 143 142 142 140 127 120 109 102 88 74 56 28 354 336 352 360 354 358 3 6 336 344 339 282 292 296 300 307 309 314 313 319 313 305 301 298 294
168 164 162 161 157 155 154 155 159 153 142 135 121 116 107 85 70 35 328 301 350 354 354 349 343 351 10 344 328 324 326 327 318 303 306 308 311 311 304 299 297 290 284
169 166 166 165 163 163 165 165 159 157 154 150 138 149 149 118 95 8 300 309 311 334 347 351 344 346 18 336 318 321 319 319 298 285 295 292 292 288 290 289 288 287 286
170 167 165 166 166 167 168 166 160 164 164 163 156 174 179 145 97 340 300 294 303 319 325 322 20 350 349 328 318 319 316 321 318 307 290 278 281 278 266 276 288 288 288
163 161 163 168 169 166 164 165 168 170 177 186 175 188 206 229 137 228 306 299 309 304 303 303 335 355 322 318 310 312 325 317 305 302 301 301 298 297 293 290 288 285 286
160 163 165 168 168 166 167 172 175 176 185 196 208 205 217 208 236 202 280 293 309 300 298 300 322 325 308 303 300 314 312 300 293 298 300 301 301 301 302 303 297 287 281
163 166 169 169 171 172 175 177 182 188 202 207 216 226 226 233 208 216 248 263 273 281 292 313 309 296 290 280 276 289 291 287 294 297 298 300 302 302 303 298 292 289 286
169 170 172 174 174 179 185 191 194 198 208 218 226 236 243 243 252 252 258 256 250 260 275 277 262 263 266 281 287 275 277 291 297 292 295 298 300 296 291 293 294 294 291
172 174 176 178 180 188 191 201 210 209 220 231 234 242 249 256 277 309 292 288 294 302 303 287 282 283 284 286 288 291 291 289 287 289 292 293 294 294 294 295 294 292 289
175 177 179 179 184 191 197 198 211 235 220 235 255 267 261 264 285 272 271 279 285 288 284 279 283 284 287 290 292 291 290 290 292 293 293 293 292 293 294 294 291 289 289
179 177 178 183 185 195 202 212 213 213 222 232 235 239 250 264 260 260 263 267 266 259 263 274 280 284 286 287 288 290 291 292 293 291 291 292 293 292 291 290 290 290 289
182 177 179 184 192 200 207 215 224 232 228 231 225 227 235 245 250 254 255 260 259 244 260 271 278 282 284 286 287 288 289 290 289 288 289 291 291 290 290 289 289 291 292
182 180 185 190 196 205 211 219 228 236 244 248 251 226 221 235 241 245 240 251 264 267 268 272 276 280 283 285 287 288 289 288 289 289 289 290 290 289 288 290 289 289 287
183 180 186 194 199 206 213 223 231 238 245 250 254 259 246 238 250 248 240 251 261 268 272 275 278 280 283 285 286 286 285 285 287 286 288 289 288 287 286 286 287 287 285
184 180 188 203 209 213 221 229 236 242 249 254 258 258 253 258 261 264 263 261 263 268 273 277 280 281 281 283 283 283 283 285 287 288 288 289 289 288 287 285 286 286 285
190 189 194 207 214 220 230 237 243 248 253 258 264 257 224 247 261 264 265 267 267 269 273 276 276 278 279 279 282 284 284 286 288 289 289 290 289 287 287 286 284 285 285
197 199 202 210 217 218 230 241 246 251 256 260 264 265 256 255 260 265 269 273 275 276 276 275 277 279 280 281 280 280 282 286 291 294 293 291 289 287 287 286 286 286 285
200 206 210 214 219 227 234 242 248 252 257 262 264 265 267 268 270 273 276 277 277 277 278 279 281 285 286 287 284 281 281 288 293 292 291 288 288 286 284 282 283 282 283
203 207 212 217 222 229 238 244 250 255 259 263 267 269 272 273 274 275 277 278 280 279 281 283 282 284 285 286 285 285 290 290 285 287 289 286 283 282 281 281 281 282 282
202 209 216 222 227 235 243 250 256 262 265 267 270 272 274 275 276 278 278 279 281 282 283 283 282 284 286 286 288 292 291 286 282 279 282 284 282 279 280 279 280 280 282